This is the latest recevied weather packets stored in our database for station/object MB7UKY-10. If no packets are shown the sender has not sent any weather packets the latest 10 day(s).
| Time | Temp. | Humidity | Pressure | Rain* | Wind** | Luminosity | Snow |
|---|---|---|---|---|---|---|---|
| 1777285681 | 19.44° C | 49% | 1019.4 hPa | - | - | - | - |
| 1777284780 | 19.44° C | 49% | 1019.6 hPa | - | - | - | - |
| 1777283879 | 19.44° C | 49% | 1019.5 hPa | - | - | - | - |
| 1777282979 | 19.44° C | 49% | 1019.7 hPa | - | - | - | - |
| 1777282077 | 18.89° C | 50% | 1019.7 hPa | - | - | - | - |
| 1777281176 | 18.89° C | 50% | 1019.6 hPa | - | - | - | - |
| 1777280275 | 18.89° C | 51% | 1019.7 hPa | - | - | - | - |
| 1777279375 | 18.89° C | 51% | 1019.9 hPa | - | - | - | - |
| 1777278474 | 18.33° C | 51% | 1019.9 hPa | - | - | - | - |
| 1777277573 | 18.33° C | 52% | 1019.8 hPa | - | - | - | - |
| 1777276672 | 17.78° C | 52% | 1019.8 hPa | - | - | - | - |
| 1777275769 | 17.22° C | 53% | 1019.9 hPa | - | - | - | - |
| 1777274868 | 16.67° C | 53% | 1020 hPa | - | - | - | - |
| 1777273968 | 16.11° C | 53% | 1020.1 hPa | - | - | - | - |
| 1777273067 | 15.56° C | 53% | 1020.2 hPa | - | - | - | - |
| 1777272166 | 15° C | 52% | 1020.2 hPa | - | - | - | - |
| 1777271265 | 14.44° C | 52% | 1020.2 hPa | - | - | - | - |
| 1777270365 | 13.89° C | 51% | 1020.2 hPa | - | - | - | - |
| 1777269464 | 13.89° C | 51% | 1020.1 hPa | - | - | - | - |
| 1777268563 | 13.89° C | 51% | 1020.1 hPa | - | - | - | - |
| 1777267662 | 13.89° C | 51% | 1019.9 hPa | - | - | - | - |
| 1777266761 | 13.89° C | 51% | 1019.8 hPa | - | - | - | - |
| 1777265860 | 13.89° C | 50% | 1019.8 hPa | - | - | - | - |
| 1777264959 | 13.89° C | 50% | 1019.9 hPa | - | - | - | - |
| 1777264059 | 14.44° C | 50% | 1019.9 hPa | - | - | - | - |
* Rain since midnight (hover to see other rain measurements)
** Current wind speed in m/s (hover to see current wind gust speed)